ONEWEB-0692, 61600

Orbit data source: Space-Track

ONEWEB-0692, 61600 is a payload satellite owned by Eut. One Web (UK) in LEO that was launched on Sun, 20 Oct 2024 UTC via an FALCON 9 launch vehicle from the Air Force Western Test Range (AFWTR). Payload-class satellites include a variety of spacecraft equipped with specific instruments for various scientific and technological missions. These include communications satellites like Starlink; space stations such as the ISS; scientific satellites like the Hubble; Earth observation satellites from companies like Planet Labs, Umbra, and HawkEye 360; GPS; miniature CubeSats for education and research; and military/defense satellites.

Loading next visibility...
Identifier
61600, 2024-188G
Orbit
LEO
Last TLE update
16 hours ago
Origin
Manufacturer
One Web
Mission
Operational Commercial Communications
Bus & Motor
ARROW, Unknown motor
Mass
148 kg wet, ~140 kg dry
Launch date (UTC)
2024-10-20 (9 months ago)
Launch vehicle
FALCON 9
Launch site
Air Force Western Test Range (AFWTR)
Object type
Payload
Rocket body
Debris
Shape & HBR
Trap Box + 2 Pan, 5 m
Radar Cross Section
2.032 m², Large (>1 m²)

Expand to show TLE details & history

TLE from 16 hours ago
0 ONEWEB-0692
1 61600U 24188G   25186.29478401 -.00000418  00000-0 -12159-2 0  9998
2 61600  87.8829  90.2519 0002670  64.4469 295.6935 13.11415147 39000
Epoch: 2025-07-05T07:04Z
TLE epoch observation values (Epoch: 2025-07-05T07:04:29.338Z)
Latitude
0.00001°
Longitude
60.59477°
Altitude
1,219.7 km
Speed
7.245 km/s
True Right ascension
06h 01m 00s
True Declination
0° 00' 00"
Sunlit
Object was in daylight at epoch
Visualization orbit readout
Latitude
-64.83109°
Longitude
55.97123°
Altitude
1,243.706 km
Speed
7.232 km/s
Apparent Right ascension
01h 33m 34s
Apparent Declination
-63° 24' 25"
Sunlit
Object is in daylight
Visualization observer readout
Local Sidereal Time
11:09:49
Azimuth
210.096° SW
Elevation
-58.406°
Doppler factor
1
Orbital elements
Apogee altitude
1,216.835 km
Perigee altitude
1,212.781 km
Semi-major axis
7,592.945 km
Eccentricity
0.00027
Inclination
87.8829°
RAAN
90.2519°
Arg. of periapsis
64.4469°
True anomaly
Unknown
Mean anomaly
295.6935°
Eccentric anomaly
Unknown
Mean motion
3.28041 °/min
Orbital period
109.74 mins
BSTAR
-0.0012159
Loading maneuver chart data...
Loading SW <> Apogee altitude chart data...
Loading historical data...
Loading historical data...
Loading historical data...
Loading historical data...
Loading historical data...
Loading historical data...
Loading historical data...

ONEWEB-0692 Visibility forecast

Observer location: undefined°, undefined°

Span
Click to sort rows by Start time (UTC) header in descending order
Start Az.
Max El. time (UTC)
Max El. Az.
Max El.
End time (UTC)
End Az.
4 mins2025-07-06 03:52:30.240Z53.333° ENE2025-07-06 03:54:30.240Z69.958° E11.915°2025-07-06 03:56:30.240Z86.565° E
13 mins2025-07-06 05:39:30.240Z3.247° NNE2025-07-06 05:45:30.240Z81.115° E44.349°2025-07-06 05:52:30.240Z175.225° S
7 mins2025-07-06 07:31:30.240Z315.517° NNW2025-07-06 07:34:30.240Z287.655° WNW17.336°2025-07-06 07:38:30.240Z251.957° W
5 mins2025-07-06 16:13:30.240Z87.21° E2025-07-06 16:15:30.240Z69.673° E13.672°2025-07-06 16:18:30.240Z44.523° NE
12 mins2025-07-06 17:58:30.240Z176.126° S2025-07-06 18:04:30.240Z26.636° NE44.673°2025-07-06 18:10:30.240Z1.727° NNE
6 mins2025-07-06 19:52:30.240Z265.439° W2025-07-06 19:54:30.240Z283.46° WNW15.303°2025-07-06 19:58:30.240Z318.639° NNW
|